| time (UTC) | temp F | wind direction | speed MPH | gust MPH | rain 1hr in | rain 24hr in | rain mn in | humidity % | barometer mb |
| 20260902130202 | 73 | 230 | 9.0 | 0.0 | 0.00 | 0.00 | 0.00 | 40 | 1020.0 |
| 20260902123203 | 73 | 230 | 8.0 | 0.0 | 0.00 | 0.00 | 0.00 | 40 | 1020.0 |
| 20260902121804 | 73 | 250 | 9.0 | 0.0 | 0.00 | 0.00 | 0.00 | 40 | |
| 20260902120202 | 73 | 260 | 6.0 | 0.0 | 0.00 | 0.00 | 0.00 | 40 | 1021.0 |
| 20260902113202 | 73 | 250 | 8.0 | 0.0 | 0.00 | 0.00 | 0.00 | 40 | 1021.0 |
| 20260902112010 | 72 | 280 | 7.0 | 0.0 | 0.00 | 0.00 | 0.00 | 46 | |
| 20260902110203 | 72 | 230 | 9.0 | 0.0 | 0.00 | 0.00 | 0.00 | 46 | 1021.0 |
| 20260902103203 | 72 | 230 | 10.0 | 0.0 | 0.00 | 0.00 | 0.00 | 43 | 1021.0 |
| 20260902102104 | 72 | 220 | 7.0 | 0.0 | 0.00 | 0.00 | 0.00 | 49 | |
| 20260902100204 | 72 | 0 | 3.0 | 0.0 | 0.00 | 0.00 | 0.00 | 53 | 1021.0 |
| 20260902093203 | 68 | 210 | 5.0 | 0.0 | 0.00 | 0.00 | 0.00 | 60 | 1022.0 |
| 20260902091802 | 68 | 0 | 5.0 | 0.0 | 0.00 | 0.00 | 0.00 | 60 | |
| 20260902090203 | 68 | 0 | 5.0 | 0.0 | 0.00 | 0.00 | 0.00 | 60 | 1022.0 |
| 20260902083203 | 68 | 240 | 3.0 | 0.0 | 0.00 | 0.00 | 0.00 | 60 | 1022.0 |
| 20260902082602 | 68 | 0 | 2.0 | 0.0 | 0.00 | 0.00 | 0.00 | 60 | 1022.0 |
| 20260902082002 | 66 | 260 | 2.0 | 0.0 | 0.00 | 0.00 | 0.00 | 59 | |
| 20260902080203 | 64 | 0 | 2.0 | 0.0 | 0.00 | 0.00 | 0.00 | 63 | 1022.0 |
| 20260902073203 | 64 | 240 | 3.0 | 0.0 | 0.00 | 0.00 | 0.00 | 67 | 1022.0 |
| 20260902071902 | 63 | 250 | 5.0 | 0.0 | 0.00 | 0.00 | 0.00 | 72 | |
| 20260902070203 | 63 | 220 | 6.0 | 0.0 | 0.00 | 0.00 | 0.00 | 72 | 1022.0 |
| 20260902063201 | 61 | 210 | 7.0 | 0.0 | 0.00 | 0.00 | 0.00 | 77 | 1021.0 |
| 20260902061803 | 57 | 220 | 7.0 | 0.0 | 0.00 | 0.00 | 0.00 | 82 | |
| 20260902060202 | 57 | 200 | 6.0 | 0.0 | 0.00 | 0.00 | 0.00 | 82 | 1021.0 |
| 20260902053203 | 57 | 210 | 6.0 | 0.0 | 0.00 | 0.00 | 0.00 | 82 | 1021.0 |
| 20260902051946 | 54 | 220 | 7.0 | 0.0 | 0.00 | 0.00 | 0.00 | 87 | |
| 20260902050203 | 54 | 200 | 8.0 | 0.0 | 0.00 | 0.00 | 0.00 | 87 | 1021.0 |
| 20260902043202 | 54 | 200 | 8.0 | 0.0 | 0.00 | 0.00 | 0.00 | 87 | 1021.0 |
| 20260902042105 | 54 | 210 | 7.0 | 0.0 | 0.00 | 0.00 | 0.00 | 87 | |
| 20260902040202 | 54 | 200 | 6.0 | 0.0 | 0.00 | 0.00 | 0.00 | 87 | 1021.0 |
| 20260902033202 | 55 | 210 | 8.0 | 0.0 | 0.00 | 0.00 | 0.00 | 82 | 1021.0 |
| 20260902031801 | 55 | 260 | 7.0 | 0.0 | 0.00 | 0.00 | 0.00 | 82 | |
| 20260902030202 | 55 | 220 | 5.0 | 0.0 | 0.00 | 0.00 | 0.00 | 82 | 1021.0 |
| 20260902023202 | 55 | 220 | 7.0 | 0.0 | 0.00 | 0.00 | 0.00 | 82 | 1021.0 |
| 20260902022002 | 55 | 230 | 9.0 | 0.0 | 0.00 | 0.00 | 0.00 | 82 | |
| 20260902020201 | 55 | 200 | 7.0 | 0.0 | 0.00 | 0.00 | 0.00 | 82 | 1021.0 |
| 20260902013202 | 55 | 200 | 8.0 | 0.0 | 0.00 | 0.00 | 0.00 | 82 | 1021.0 |
| 20260902012001 | 55 | 220 | 7.0 | 0.0 | 0.00 | 0.00 | 0.00 | 82 | |
| 20260902010204 | 55 | 210 | 8.0 | 0.0 | 0.00 | 0.00 | 0.00 | 82 | 1021.0 |
| 20260902003203 | 57 | 210 | 9.0 | 0.0 | 0.00 | 0.00 | 0.00 | 76 | 1021.0 |
| 20260902001803 | 55 | 230 | 7.0 | 0.0 | 0.00 | 0.00 | 0.00 | 82 | |
| 20260902000204 | 57 | 210 | 9.0 | 0.0 | 0.00 | 0.00 | 0.00 | 76 | 1021.0 |
| 20260901233203 | 57 | 210 | 7.0 | 0.0 | 0.00 | 0.00 | 0.00 | 76 | 1021.0 |
| 20260901231946 | 57 | 220 | 9.0 | 0.0 | 0.00 | 0.00 | 0.00 | 76 | |
| 20260901230203 | 57 | 200 | 8.0 | 0.0 | 0.00 | 0.00 | 0.00 | 76 | 1021.0 |
| 20260901223203 | 59 | 200 | 10.0 | 0.0 | 0.00 | 0.00 | 0.00 | 72 | 1021.0 |
| 20260901222105 | 59 | 220 | 12.0 | 0.0 | 0.00 | 0.00 | 0.00 | 72 | |
| 20260901220202 | 59 | 200 | 10.0 | 0.0 | 0.00 | 0.00 | 0.00 | 72 | 1021.0 |
| 20260901213203 | 59 | 200 | 9.0 | 0.0 | 0.00 | 0.00 | 0.00 | 72 | 1021.0 |
| 20260901211802 | 61 | 210 | 7.0 | 0.0 | 0.00 | 0.00 | 0.00 | 67 | |
| 20260901210201 | 61 | 200 | 8.0 | 0.0 | 0.00 | 0.00 | 0.00 | 67 | 1021.0 |
| 20260901203203 | 61 | 190 | 6.0 | 0.0 | 0.00 | 0.00 | 0.00 | 72 | 1021.0 |
| 20260901202001 | 61 | 230 | 7.0 | 0.0 | 0.00 | 0.00 | 0.00 | 67 | |
| 20260901200203 | 61 | 220 | 5.0 | 0.0 | 0.00 | 0.00 | 0.00 | 72 | 1021.0 |
| 20260901193202 | 61 | 220 | 5.0 | 0.0 | 0.00 | 0.00 | 0.00 | 72 | 1021.0 |
| 20260901192002 | 63 | 260 | 5.0 | 0.0 | 0.00 | 0.00 | 0.00 | 67 | |
| 20260901190202 | 63 | 230 | 3.0 | 0.0 | 0.00 | 0.00 | 0.00 | 67 | 1020.0 |
| 20260901183203 | 64 | 230 | 2.0 | 0.0 | 0.00 | 0.00 | 0.00 | 63 | 1020.0 |
| 20260901181801 | 66 | 240 | 2.0 | 0.0 | 0.00 | 0.00 | 0.00 | 59 | |
| 20260901180202 | 66 | 0 | 2.0 | 0.0 | 0.00 | 0.00 | 0.00 | 55 | 1020.0 |
| 20260901173409 | 70 | 280 | 3.0 | 0.0 | 0.00 | 0.00 | 0.00 | 49 | 1020.0 |
| 20260901172002 | 70 | 290 | 5.0 | 0.0 | 0.00 | 0.00 | 0.00 | 46 | |
| 20260901170204 | 72 | 300 | 5.0 | 0.0 | 0.00 | 0.00 | 0.00 | 46 | 1020.0 |
| 20260901163202 | 72 | 260 | 7.0 | 0.0 | 0.00 | 0.00 | 0.00 | 46 | 1020.0 |
| 20260901162105 | 72 | 260 | 9.0 | 0.0 | 0.00 | 0.00 | 0.00 | 40 | |
| 20260901160203 | 72 | 260 | 6.0 | 0.0 | 0.00 | 0.00 | 0.00 | 43 | 1020.0 |
| 20260901153202 | 72 | 210 | 10.0 | 0.0 | 0.00 | 0.00 | 0.00 | 46 | 1020.0 |
| 20260901151801 | 73 | 300 | 7.0 | 0.0 | 0.00 | 0.00 | 0.00 | 40 | |
| 20260901150203 | 72 | 260 | 7.0 | 0.0 | 0.00 | 0.00 | 0.00 | 46 | 1020.0 |
| 20260901143202 | 72 | 230 | 9.0 | 0.0 | 0.00 | 0.00 | 0.00 | 43 | 1020.0 |
| 20260901142001 | 72 | 240 | 12.0 | 0.0 | 0.00 | 0.00 | 0.00 | 46 | |
| 20260901140203 | 72 | 260 | 10.0 | 0.0 | 0.00 | 0.00 | 0.00 | 46 | 1020.0 |
| 20260901133203 | 72 | 230 | 13.0 | 0.0 | 0.00 | 0.00 | 0.00 | 43 | 1020.0 |
| 20260901131903 | 72 | 270 | 9.0 | 0.0 | 0.00 | 0.00 | 0.00 | 46 |